Location: Gorze? G�rny
(49.8500°N, 19.5000°E)
Time: 04:56:58
(UTC+00:00)

Terra - Pass Details

Date: 13 May 2021
Orbit: 701 x 703 km, 98.2° (Epoch: 20 June)

Event Time Altitude Azimuth Distance (km) Brightness Sun altitude
Exits shadow 21:20:17 21° 217° (SW) 1,562 3.3 -19.4°
Maximum altitude 21:22:39 32° 264° (W) 1,196 3.1 -19.5°
Drops below altitude 10° 21:26:57 10° 328° (NNW) 2,183 5.5 -19.7°
Sets 21:29:26 0° 339° (NNW) 3,106 6.8 -19.9°
